Theta_e
318 317 316 316 317 318 317 317 317 318 318 318 319 320 320 320 319 318 317 316 307 299 304 300 299 298 298 298 298 299 299 299 299 299 300 302 305 307 307 307 307 305 305
317 316 316 317 318 318 318 318 319 319 320 321 321 321 320 320 319 317 317 312 305 298 298 298 298 297 297 297 298 298 299 298 298 299 304 306 305 306 305 305 304 303 304
316 317 318 318 319 319 320 320 320 320 320 321 320 320 320 319 319 317 316 309 301 298 298 297 297 297 297 297 297 298 298 298 297 304 303 304 305 303 304 303 303 302 302
317 318 319 319 320 320 320 320 320 319 319 320 319 319 319 319 319 317 314 307 299 298 298 297 297 296 296 296 297 297 297 297 298 299 301 302 303 303 302 302 302 301 300
317 318 319 319 320 321 321 321 321 319 319 320 318 319 318 318 319 316 310 302 299 297 297 297 297 296 296 296 296 296 297 296 297 300 301 302 301 301 301 301 300 299 299
318 319 320 320 321 321 321 321 321 320 319 319 318 319 318 318 318 316 307 304 301 297 297 297 296 296 296 296 296 296 296 296 297 299 300 300 300 300 299 299 299 299 298
318 319 320 320 321 322 322 322 322 320 319 319 318 317 318 317 315 315 309 307 299 296 297 296 296 295 295 295 295 295 295 295 297 299 299 298 299 299 299 299 298 297 297
317 318 320 321 322 323 323 321 322 320 319 319 318 318 318 314 313 313 312 309 306 296 296 296 295 294 295 295 295 295 294 294 295 295 296 298 298 298 297 297 296 296 296
318 319 319 321 322 324 323 322 320 320 320 319 318 318 317 316 315 312 311 309 307 300 295 295 294 294 294 294 294 294 293 293 293 293 295 295 296 296 296 296 295 295 294
318 318 320 321 323 324 324 323 321 321 320 319 319 318 318 317 317 312 309 308 307 303 297 295 294 294 294 294 293 293 293 293 292 292 291 292 293 295 295 295 294 293 293
318 319 320 321 323 324 325 324 322 321 321 321 321 319 319 318 317 315 312 308 306 305 301 295 294 293 293 293 293 292 292 292 292 292 291 291 290 291 293 293 293 291 291
319 320 321 321 323 324 326 325 323 323 322 321 321 321 320 319 319 318 315 311 307 303 301 297 294 293 293 292 292 292 292 292 291 291 291 291 290 290 290 290 290 290 288
319 320 320 321 323 325 327 326 324 323 323 322 322 322 321 321 320 319 318 316 309 305 300 297 295 294 293 292 292 292 291 291 291 291 291 290 290 289 289 289 288 287 287
320 321 321 322 323 325 327 327 324 323 323 323 322 323 322 320 319 319 318 318 310 303 299 297 296 294 294 292 292 291 291 291 291 291 290 290 290 289 289 288 287 287 287
322 323 323 324 325 327 327 327 326 323 323 323 322 322 322 319 318 318 317 317 316 301 298 296 295 294 294 292 292 291 291 291 291 290 290 290 289 289 289 288 287 287 286
326 327 326 327 327 328 328 328 328 326 324 323 323 323 322 319 319 318 317 317 316 306 296 295 295 294 294 292 292 291 291 291 291 290 290 290 289 289 288 288 287 287 285
328 328 327 326 326 327 328 329 329 329 327 325 324 323 323 321 320 319 317 316 316 305 295 294 294 294 294 292 292 291 291 291 291 290 290 289 289 289 288 287 287 287 285
329 328 329 328 328 329 327 327 327 328 328 329 327 325 324 323 321 320 317 315 314 300 294 294 294 294 294 292 291 291 292 291 290 290 289 289 289 288 287 287 286 287 285
331 329 330 328 327 327 327 327 326 327 327 326 327 326 325 324 322 320 318 313 309 297 294 293 294 293 293 292 291 291 292 291 290 289 289 289 289 288 287 287 286 286 285
326 326 326 326 327 327 329 329 327 327 324 324 324 325 325 325 323 321 318 313 304 294 293 293 292 292 292 291 291 291 293 291 289 288 288 288 288 288 287 287 286 286 285
323 324 324 325 326 328 327 326 327 327 326 325 324 324 320 323 318 321 315 312 303 293 296 292 291 291 291 291 292 292 296 291 289 288 288 288 288 288 287 286 286 286 284
319 320 322 321 323 324 323 323 321 322 323 319 323 321 321 321 320 315 313 298 295 293 292 292 291 291 291 291 291 295 296 294 289 288 288 288 288 288 288 287 286 286 285
318 321 316 318 319 319 317 318 321 319 319 321 321 320 320 315 315 310 310 301 295 291 292 291 291 291 291 291 296 296 292 293 288 288 287 288 287 287 288 288 286 286 285
311 311 312 311 314 316 316 316 317 318 317 317 316 315 315 314 310 306 298 299 291 294 294 290 289 289 291 296 297 295 292 293 288 288 287 287 287 287 287 288 287 286 285
310 310 310 310 309 309 311 312 312 312 312 311 310 312 310 306 305 301 300 291 295 297 290 289 289 290 295 296 296 293 294 290 287 288 287 286 286 286 287 287 287 287 285
309 308 310 309 309 309 310 309 310 310 310 310 307 306 304 303 300 297 295 298 295 291 289 288 290 292 295 295 294 293 293 291 287 286 287 285 286 285 286 286 287 286 285
Wind_Speed
11 11 10 9 9 8 7 5 4 3 3 2 1 2 5 4 5 4 3 1 2 3 1 8 10 11 13 15 16 16 17 18 18 20 20 21 21 21 22 23 25 24 26
12 11 11 10 9 8 6 5 5 5 4 1 1 3 5 5 7 6 4 3 3 4 6 8 8 9 12 14 15 15 16 17 18 20 21 21 20 21 22 22 22 23 25
14 13 12 11 9 8 7 7 6 6 5 5 3 4 6 7 8 8 6 4 5 6 7 6 7 8 11 13 14 14 15 17 17 17 19 19 20 20 20 21 23 24 24
16 15 14 12 11 10 10 10 9 9 8 7 6 7 9 8 8 8 8 7 6 7 7 6 6 7 10 12 13 13 15 16 15 16 17 16 17 20 20 23 23 24 25
17 16 16 14 14 14 13 12 12 10 9 9 8 8 9 10 9 11 11 8 8 7 7 5 5 7 9 10 12 13 14 16 15 16 16 17 17 18 19 20 22 23 24
20 20 19 18 17 16 15 16 15 13 11 9 8 9 11 12 11 13 11 10 10 9 8 7 5 6 8 9 9 11 14 14 15 13 14 17 17 18 18 19 20 23 24
23 23 21 21 20 19 17 16 17 15 12 11 10 9 11 12 11 13 14 13 12 10 10 9 7 6 7 7 8 11 12 13 12 13 15 13 16 16 18 20 21 22 24
25 25 25 24 23 21 19 18 20 18 15 15 15 12 11 13 15 16 16 15 14 13 12 10 8 7 6 6 8 9 11 11 10 12 12 14 13 16 17 19 21 21 23
29 28 27 26 26 24 22 20 19 19 17 18 18 17 10 11 16 20 20 19 17 17 15 12 10 8 7 6 7 9 11 11 12 11 11 12 13 15 17 18 19 20 22
31 31 29 28 27 27 26 23 20 20 21 22 21 24 23 16 12 10 21 24 22 20 18 15 13 11 8 7 6 8 11 12 12 13 12 10 12 13 14 16 18 20 22
35 34 33 31 30 30 30 27 26 27 26 26 28 27 26 24 24 22 18 24 27 26 23 19 16 12 10 8 7 8 10 11 12 12 11 11 12 13 14 15 17 20 21
39 38 36 35 33 33 33 31 30 31 31 29 29 32 30 29 28 30 29 26 27 27 26 23 19 16 12 9 7 9 9 10 11 11 12 11 11 12 13 15 18 19 21
43 42 40 38 37 35 35 34 33 34 34 34 33 33 33 31 31 30 30 30 29 31 29 27 24 19 15 11 8 9 10 11 11 12 11 11 10 12 12 15 17 19 21
44 43 42 40 39 38 37 36 36 35 36 36 35 34 34 31 32 33 32 33 31 31 32 29 27 24 18 13 10 9 9 9 11 12 12 11 9 9 11 13 15 17 19
47 45 45 43 40 40 39 38 39 39 37 36 34 35 35 30 29 29 34 34 32 31 34 32 29 23 20 16 12 10 10 9 11 11 13 11 9 9 10 11 12 15 16
45 45 45 44 41 41 40 40 42 43 42 42 42 41 41 35 33 34 34 33 33 34 30 28 30 25 19 16 14 12 11 11 12 13 13 11 10 9 9 11 12 13 15
46 45 44 43 41 41 42 42 43 45 47 47 47 46 45 42 42 38 36 35 35 35 35 30 29 25 23 19 15 13 12 12 13 15 14 12 11 12 10 11 12 13 14
45 44 45 44 44 42 40 42 44 45 44 49 50 50 50 48 46 39 37 40 36 34 35 32 29 28 26 20 18 15 12 13 13 16 15 14 13 13 12 12 12 14 13
44 44 45 45 43 41 41 41 40 44 43 44 45 50 53 52 50 46 41 42 37 35 35 33 30 28 25 22 19 15 13 14 13 16 17 15 16 15 15 14 12 13 15
40 40 40 40 41 40 41 41 42 43 40 43 41 43 48 53 51 49 47 43 35 34 33 32 30 27 25 22 18 14 11 15 14 17 18 17 18 18 17 15 14 13 14
35 35 35 36 36 38 36 38 39 43 43 43 41 43 43 48 53 49 47 37 33 34 30 34 30 27 24 20 15 10 11 15 20 18 18 18 18 19 18 17 15 15 13
28 28 31 31 31 30 29 30 33 36 37 41 42 41 44 49 52 47 41 29 30 28 32 32 28 25 22 17 11 9 12 17 23 19 16 18 18 19 19 20 17 16 15
24 28 29 31 32 32 32 31 32 33 35 39 38 43 43 41 44 40 36 29 29 29 30 25 28 24 20 11 6 11 14 19 25 23 20 24 19 20 19 20 18 17 16
21 24 26 26 27 28 29 30 30 32 32 32 32 30 31 32 38 35 29 29 28 26 34 28 24 19 14 8 8 14 15 23 28 24 19 23 19 16 17 18 19 17 16
17 18 18 20 23 25 28 30 32 31 29 30 29 28 27 25 28 29 26 26 31 30 27 27 24 20 13 9 12 13 21 24 26 25 19 20 21 16 16 17 19 18 17
11 10 10 11 11 13 15 17 19 20 24 24 25 26 25 24 25 23 26 25 20 24 29 28 24 18 12 12 14 18 23 25 27 26 20 17 17 15 11 16 19 18 15
Wind_Direction
187 183 187 183 186 189 186 184 181 173 163 143 119 347 319 299 309 287 261 289 337 5 16 342 354 4 8 7 7 9 10 12 14 14 23 27 33 35 35 30 28 24 17
206 201 201 198 201 203 202 200 201 194 185 145 159 264 294 276 307 274 259 288 302 309 319 338 346 1 5 4 5 7 9 12 15 25 38 35 40 37 34 26 22 20 19
213 212 213 214 216 217 219 220 218 214 207 202 207 243 261 259 291 269 257 276 287 306 320 332 339 355 2 2 0 3 8 12 21 43 38 38 41 27 25 28 24 23 13
219 218 224 225 228 229 231 230 227 227 218 211 226 251 252 239 279 262 258 264 286 309 317 324 327 351 356 357 358 5 10 14 34 21 37 38 36 35 26 27 24 22 17
225 227 229 230 234 236 242 238 237 235 226 214 224 245 225 236 271 262 268 257 281 292 297 304 310 336 348 351 358 3 9 15 22 36 39 45 35 33 29 26 22 18 17
231 232 233 235 239 242 244 243 238 231 227 225 245 250 243 247 261 257 255 263 276 285 286 290 293 325 338 345 357 5 12 21 30 32 45 39 41 34 28 28 23 21 20
235 238 241 242 244 246 253 253 242 233 226 213 230 233 233 237 249 254 252 258 266 275 274 276 280 304 325 341 355 10 16 20 32 44 51 43 39 35 31 33 27 21 21
236 240 242 244 246 249 250 246 236 232 230 219 233 238 211 225 234 246 253 261 267 274 274 274 272 290 313 333 350 4 14 20 38 37 43 50 39 38 32 27 27 20 19
237 241 244 246 247 249 247 247 239 231 230 225 239 232 225 230 238 240 246 255 261 267 269 267 264 277 300 324 344 359 9 13 16 26 46 46 46 39 33 26 23 19 20
241 243 245 245 245 248 246 244 239 230 234 234 243 244 247 253 231 234 239 245 252 256 261 263 262 269 286 305 332 350 358 5 11 13 23 35 39 39 33 26 21 19 19
245 247 248 247 247 248 247 243 239 233 238 246 251 255 245 251 254 251 249 242 247 249 251 252 255 263 279 300 318 340 351 356 0 6 11 19 22 30 28 22 20 15 17
248 249 249 250 251 251 249 247 244 240 243 245 253 256 253 257 256 254 251 256 252 250 251 249 249 251 265 283 305 324 334 344 353 356 359 6 16 15 16 15 13 11 12
250 252 252 252 252 252 250 250 247 245 245 247 251 254 255 263 268 268 266 255 248 248 247 246 245 246 253 269 288 308 320 331 337 342 347 354 6 7 7 8 8 7 7
257 258 259 258 258 257 254 252 250 248 247 250 254 255 256 269 272 269 265 263 245 246 247 247 246 242 243 254 271 284 291 308 318 322 331 336 344 352 358 2 3 3 2
260 261 261 260 260 260 257 253 250 248 246 244 243 250 255 257 259 265 262 259 255 238 242 245 240 237 235 243 256 270 279 290 302 306 313 316 323 331 344 350 359 358 358
262 263 263 264 263 261 259 255 253 250 249 248 247 245 250 251 252 258 255 255 253 245 244 244 241 235 230 239 250 257 270 281 290 296 291 297 305 313 326 335 345 353 354
263 264 266 266 264 262 260 257 257 255 253 252 251 250 250 250 252 252 250 249 249 239 237 234 232 230 229 234 243 250 260 272 282 283 283 286 294 301 308 317 329 343 351
268 268 268 268 269 268 266 262 260 260 261 259 256 253 251 249 250 249 251 252 247 240 235 233 229 225 226 231 237 240 253 267 274 277 280 276 281 287 292 300 313 325 340
268 270 269 269 270 270 267 266 266 268 264 268 265 262 256 251 249 246 248 244 241 235 232 233 228 224 222 225 231 235 255 268 274 277 278 274 274 278 280 288 298 308 323
266 267 269 271 270 271 271 271 270 267 268 269 263 272 264 256 252 249 246 239 236 232 233 232 227 226 224 223 228 243 271 278 280 274 277 273 270 271 271 277 282 292 305
258 262 267 267 268 270 271 271 276 273 264 266 270 271 274 256 266 255 245 242 229 231 241 230 226 224 225 224 232 251 303 295 283 277 279 271 268 266 265 267 271 277 288
255 256 255 261 263 266 273 275 276 279 280 272 273 274 280 264 253 247 244 228 241 238 237 231 229 229 230 227 229 267 305 302 286 283 276 276 267 262 263 266 264 270 279
245 248 254 257 260 264 266 265 268 269 272 272 272 277 272 268 256 249 243 228 223 228 236 235 242 233 225 226 251 305 281 299 281 281 280 282 272 271 260 261 260 261 268
254 255 255 255 255 256 260 263 265 266 271 273 273 282 279 272 259 242 235 227 223 232 241 230 230 223 216 239 285 294 297 290 280 278 281 279 284 273 258 254 257 254 260
264 264 264 263 261 259 257 258 262 268 274 280 280 277 277 265 250 240 227 216 231 234 230 230 220 212 221 259 278 286 301 284 277 277 272 274 277 271 256 252 254 256 256
272 277 286 290 289 285 279 279 273 278 273 276 281 280 270 256 240 223 222 227 225 232 231 224 213 205 232 263 288 297 307 275 273 275 281 266 278 272 269 255 251 247 241